| time (UTC) | temp F | wind direction | speed knots | gust knots | rain 1hr in | rain 24hr in | rain mn in | humidity % | barometer mb |
| 20260510204009 | 70 | 186 | 0.9 | 4.3 | 0.00 | 0.21 | 0.00 | 53 | 1012.1 |
| 20260510203506 | 70 | 180 | 0.9 | 4.3 | 0.00 | 0.22 | 0.00 | 52 | 1012.1 |
| 20260510203032 | 70 | 296 | 0.9 | 5.2 | 0.00 | 0.23 | 0.00 | 51 | 1012.0 |
| 20260510202507 | 71 | 184 | 0.9 | 9.6 | 0.00 | 0.23 | 0.00 | 51 | 1012.0 |
| 20260510202005 | 71 | 236 | 1.7 | 9.6 | 0.00 | 0.24 | 0.00 | 51 | 1012.0 |
| 20260510201509 | 71 | 325 | 2.6 | 9.6 | 0.00 | 0.24 | 0.00 | 50 | 1012.0 |
| 20260510201004 | 71 | 267 | 3.5 | 8.7 | 0.00 | 0.25 | 0.00 | 50 | 1012.0 |
| 20260510200505 | 71 | 204 | 2.6 | 8.7 | 0.00 | 0.25 | 0.00 | 49 | 1012.0 |
| 20260510200016 | 71 | 286 | 1.7 | 6.1 | 0.00 | 0.25 | 0.00 | 51 | 1012.0 |
| 20260510195510 | 71 | 213 | 0.9 | 6.1 | 0.00 | 0.25 | 0.00 | 50 | 1012.0 |
| 20260510195007 | 71 | 219 | 2.6 | 7.8 | 0.00 | 0.25 | 0.00 | 49 | 1012.0 |
| 20260510194518 | 71 | 213 | 3.5 | 8.7 | 0.00 | 0.25 | 0.00 | 49 | 1012.0 |
| 20260510194008 | 71 | 338 | 1.7 | 8.7 | 0.00 | 0.25 | 0.00 | 51 | 1012.0 |
| 20260510193509 | 71 | 178 | 0.9 | 7.0 | 0.00 | 0.25 | 0.00 | 51 | 1011.9 |
| 20260510193021 | 71 | 270 | 1.7 | 8.7 | 0.00 | 0.25 | 0.00 | 52 | 1011.9 |
| 20260510192511 | 70 | 232 | 3.5 | 8.7 | 0.00 | 0.25 | 0.00 | 53 | 1012.0 |
| 20260510192008 | 69 | 343 | 0.9 | 4.3 | 0.00 | 0.26 | 0.00 | 65 | 1012.0 |
| 20260510191528 | 69 | 300 | 0.9 | 1.7 | 0.00 | 0.26 | 0.00 | 67 | 1012.1 |
| 20260510191004 | 69 | 158 | 0.9 | 1.7 | 0.00 | 0.26 | 0.00 | 67 | 1012.1 |
| 20260510190505 | 69 | 216 | 0.0 | 1.7 | 0.00 | 0.26 | 0.00 | 68 | 1012.1 |
| 20260510190013 | 69 | 143 | 0.9 | 1.7 | 0.00 | 0.26 | 0.00 | 68 | 1012.1 |
| 20260510185505 | 69 | 207 | 0.0 | 1.7 | 0.00 | 0.27 | 0.00 | 68 | 1012.3 |
| 20260510185006 | 69 | 159 | 0.0 | 1.7 | 0.00 | 0.27 | 0.00 | 71 | 1012.2 |
| 20260510184518 | 68 | 152 | 0.0 | 2.6 | 0.00 | 0.28 | 0.00 | 71 | 1012.3 |
| 20260510184008 | 68 | 186 | 0.0 | 2.6 | 0.00 | 0.28 | 0.00 | 72 | 1012.2 |
| 20260510183511 | 68 | 167 | 0.9 | 2.6 | 0.00 | 0.28 | 0.00 | 70 | 1012.3 |
| 20260510183033 | 68 | 97 | 0.9 | 1.7 | 0.00 | 0.31 | 0.00 | 71 | 1012.3 |
| 20260510182504 | 68 | 82 | 0.9 | 2.6 | 0.00 | 0.33 | 0.00 | 71 | 1012.3 |
| 20260510182004 | 69 | 169 | 0.9 | 2.6 | 0.00 | 0.36 | 0.00 | 69 | 1012.4 |
| 20260510181507 | 68 | 140 | 0.9 | 2.6 | 0.00 | 0.37 | 0.00 | 70 | 1012.3 |
| 20260510181005 | 68 | 109 | 0.9 | 2.6 | 0.00 | 0.38 | 0.00 | 70 | 1012.3 |
| 20260510180508 | 67 | 136 | 0.9 | 2.6 | 0.00 | 0.38 | 0.00 | 73 | 1012.3 |
| 20260510180011 | 66 | 202 | 0.0 | 1.7 | 0.00 | 0.38 | 0.00 | 73 | 1012.3 |
| 20260510175504 | 66 | 180 | 0.9 | 1.7 | 0.00 | 0.38 | 0.00 | 73 | 1012.3 |
| 20260510175005 | 66 | 192 | 0.0 | 3.5 | 0.00 | 0.38 | 0.00 | 74 | 1012.3 |
| 20260510174515 | 66 | 212 | 1.7 | 3.5 | 0.00 | 0.38 | 0.00 | 72 | 1012.3 |
| 20260510174007 | 67 | 203 | 0.9 | 2.6 | 0.00 | 0.38 | 0.00 | 71 | 1012.4 |
| 20260510173508 | 67 | 131 | 0.0 | 3.5 | 0.00 | 0.38 | 0.00 | 71 | 1012.4 |
| 20260510173018 | 67 | 111 | 0.9 | 3.5 | 0.00 | 0.38 | 0.00 | 70 | 1012.4 |
| 20260510172509 | 67 | 203 | 0.9 | 3.5 | 0.00 | 0.38 | 0.00 | 71 | 1012.4 |
| 20260510172011 | 66 | 185 | 0.9 | 2.6 | 0.00 | 0.38 | 0.00 | 72 | 1012.5 |
| 20260510171503 | 66 | 130 | 0.9 | 3.5 | 0.00 | 0.38 | 0.00 | 73 | 1012.6 |
| 20260510171007 | 66 | 145 | 0.9 | 3.5 | 0.00 | 0.38 | 0.00 | 74 | 1012.5 |
| 20260510170506 | 65 | 136 | 0.9 | 2.6 | 0.00 | 0.38 | 0.00 | 75 | 1012.7 |
| 20260510170010 | 65 | 146 | 0.9 | 2.6 | 0.00 | 0.38 | 0.00 | 75 | 1012.7 |
| 20260510165505 | 64 | 128 | 0.9 | 3.5 | 0.00 | 0.38 | 0.00 | 76 | 1012.8 |
| 20260510165005 | 64 | 118 | 0.9 | 3.5 | 0.00 | 0.38 | 0.00 | 76 | 1012.9 |
| 20260510164526 | 64 | 166 | 0.9 | 2.6 | 0.00 | 0.38 | 0.00 | 77 | 1013.0 |
| 20260510164009 | 63 | 132 | 0.9 | 2.6 | 0.00 | 0.38 | 0.00 | 77 | 1013.0 |
| 20260510163506 | 63 | 194 | 0.0 | 2.6 | 0.00 | 0.38 | 0.00 | 79 | 1013.0 |
| 20260510163020 | 62 | 149 | 1.7 | 3.5 | 0.00 | 0.38 | 0.00 | 77 | 1013.1 |
| 20260510162509 | 62 | 121 | 0.9 | 3.5 | 0.00 | 0.38 | 0.00 | 78 | 1013.0 |
| 20260510162010 | 62 | 180 | 0.9 | 3.5 | 0.00 | 0.38 | 0.00 | 78 | 1013.1 |
| 20260510161522 | 62 | 136 | 1.7 | 2.6 | 0.00 | 0.38 | 0.00 | 78 | 1013.2 |
| 20260510161012 | 62 | 151 | 0.0 | 4.3 | 0.00 | 0.38 | 0.00 | 81 | 1013.1 |
| 20260510160504 | 61 | 142 | 0.9 | 4.3 | 0.00 | 0.38 | 0.00 | 80 | 1012.9 |
| 20260510160006 | 61 | 182 | 1.7 | 3.5 | 0.00 | 0.38 | 0.00 | 81 | 1013.0 |
| 20260510155508 | 61 | 175 | 1.7 | 4.3 | 0.00 | 0.38 | 0.00 | 80 | 1013.4 |
| 20260510155004 | 61 | 200 | 1.7 | 4.3 | 0.00 | 0.38 | 0.00 | 80 | 1013.4 |
| 20260510154510 | 61 | 122 | 0.9 | 2.6 | 0.00 | 0.38 | 0.00 | 81 | 1013.3 |
| 20260510154006 | 61 | 123 | 1.7 | 3.5 | 0.00 | 0.38 | 0.00 | 82 | 1013.4 |
| 20260510153504 | 60 | 157 | 0.9 | 3.5 | 0.00 | 0.38 | 0.00 | 82 | 1013.2 |
| 20260510153022 | 59 | 129 | 0.9 | 5.2 | 0.00 | 0.38 | 0.00 | 84 | 1013.2 |
| 20260510152513 | 59 | 130 | 0.9 | 5.2 | 0.00 | 0.38 | 0.00 | 85 | 1013.2 |
| 20260510152010 | 58 | 123 | 0.9 | 5.2 | 0.00 | 0.38 | 0.00 | 84 | 1013.2 |
| 20260510151520 | 59 | 126 | 1.7 | 5.2 | 0.00 | 0.38 | 0.00 | 84 | 1013.3 |
| 20260510151007 | 58 | 120 | 0.9 | 5.2 | 0.00 | 0.38 | 0.00 | 86 | 1013.3 |
| 20260510150512 | 58 | 188 | 1.7 | 5.2 | 0.00 | 0.38 | 0.00 | 86 | 1013.3 |
| 20260510150023 | 57 | 130 | 0.0 | 3.5 | 0.00 | 0.38 | 0.00 | 88 | 1013.4 |
| 20260510145514 | 57 | 131 | 0.9 | 3.5 | 0.00 | 0.38 | 0.00 | 88 | 1013.3 |
| 20260510145005 | 57 | 132 | 0.0 | 2.6 | 0.00 | 0.38 | 0.00 | 89 | 1013.3 |
| 20260510144508 | 56 | 141 | 0.0 | 2.6 | 0.00 | 0.38 | 0.00 | 89 | 1013.4 |
| 20260510144007 | 56 | 135 | 0.0 | 2.6 | 0.00 | 0.38 | 0.00 | 88 | 1013.3 |
| 20260510143507 | 56 | 131 | 0.9 | 2.6 | 0.00 | 0.38 | 0.00 | 88 | 1013.5 |
| 20260510143013 | 56 | 134 | 0.9 | 1.7 | 0.00 | 0.38 | 0.00 | 89 | 1013.4 |
| 20260510142505 | 56 | 144 | 0.9 | 3.5 | 0.00 | 0.38 | 0.00 | 89 | 1013.3 |
| 20260510142008 | 56 | 150 | 0.0 | 3.5 | 0.00 | 0.38 | 0.00 | 89 | 1013.3 |
| 20260510141519 | 56 | 180 | 0.0 | 2.6 | 0.00 | 0.38 | 0.00 | 89 | 1013.1 |
| 20260510141008 | 56 | 100 | 0.9 | 2.6 | 0.00 | 0.38 | 0.00 | 89 | 1013.1 |
| 20260510140512 | 56 | 106 | 0.0 | 2.6 | 0.00 | 0.38 | 0.00 | 90 | 1013.1 |
| 20260510140023 | 55 | 84 | 0.9 | 2.6 | 0.00 | 0.38 | 0.00 | 90 | 1013.1 |
| 20260510135508 | 55 | 193 | 0.0 | 2.6 | 0.00 | 0.38 | 0.00 | 90 | 1013.1 |
| 20260510135007 | 55 | 209 | 0.9 | 2.6 | 0.00 | 0.38 | 0.00 | 90 | 1013.1 |
| 20260510134526 | 55 | 132 | 0.9 | 2.6 | 0.00 | 0.38 | 0.00 | 90 | 1013.0 |
| 20260510134005 | 55 | 176 | 0.9 | 1.7 | 0.00 | 0.38 | 0.00 | 91 | 1013.1 |
| 20260510133507 | 55 | 133 | 0.0 | 1.7 | 0.00 | 0.38 | 0.00 | 91 | 1013.0 |
| 20260510133012 | 55 | 202 | 0.0 | 2.6 | 0.00 | 0.38 | 0.00 | 92 | 1013.0 |
| 20260510132511 | 55 | 165 | 0.0 | 2.6 | 0.00 | 0.38 | 0.00 | 92 | 1013.1 |
| 20260510132007 | 54 | 196 | 0.9 | 2.6 | 0.00 | 0.38 | 0.00 | 93 | 1012.9 |
| 20260510131517 | 54 | 191 | 0.0 | 1.7 | 0.00 | 0.38 | 0.00 | 93 | 1012.9 |
| 20260510131009 | 54 | 198 | 0.0 | 1.7 | 0.00 | 0.38 | 0.00 | 94 | 1012.8 |
| 20260510130509 | 54 | 135 | 0.0 | 1.7 | 0.00 | 0.38 | 0.00 | 93 | 1012.9 |
| 20260510130028 | 53 | 135 | 0.0 | 1.7 | 0.00 | 0.38 | 0.00 | 93 | 1012.6 |
| 20260510125509 | 54 | 136 | 0.0 | 1.7 | 0.00 | 0.38 | 0.00 | 94 | 1012.6 |
| 20260510125012 | 53 | 136 | 0.0 | 0.0 | 0.00 | 0.38 | 0.00 | 94 | 1012.8 |
| 20260510124533 | 53 | 136 | 0.0 | 1.7 | 0.00 | 0.38 | 0.00 | 94 | 1012.8 |
| 20260510124011 | 53 | 136 | 0.0 | 1.7 | 0.00 | 0.39 | 0.00 | 94 | 1012.7 |
| 20260510123513 | 53 | 136 | 0.0 | 1.7 | 0.00 | 0.39 | 0.00 | 94 | 1012.5 |
| 20260510123026 | 53 | 186 | 0.0 | 1.7 | 0.00 | 0.39 | 0.00 | 94 | 1012.4 |
| 20260510122504 | 53 | 186 | 0.0 | 1.7 | 0.00 | 0.39 | 0.00 | 94 | 1012.5 |
| 20260510122007 | 53 | 187 | 0.0 | 1.7 | 0.00 | 0.39 | 0.00 | 94 | 1012.4 |
| 20260510121513 | 53 | 149 | 0.0 | 1.7 | 0.00 | 0.39 | 0.00 | 95 | 1012.3 |
| 20260510121008 | 53 | 149 | 0.0 | 1.7 | 0.00 | 0.39 | 0.00 | 95 | 1012.2 |
| 20260510120508 | 53 | 205 | 0.0 | 1.7 | 0.00 | 0.39 | 0.00 | 95 | 1012.2 |
| 20260510120020 | 53 | 204 | 0.0 | 1.7 | 0.00 | 0.39 | 0.00 | 94 | 1012.2 |
| 20260510115507 | 53 | 136 | 0.9 | 1.7 | 0.00 | 0.39 | 0.00 | 95 | 1012.3 |
| 20260510115006 | 53 | 141 | 0.0 | 1.7 | 0.00 | 0.39 | 0.00 | 95 | 1012.3 |
| 20260510114522 | 53 | 190 | 0.0 | 2.6 | 0.00 | 0.39 | 0.00 | 95 | 1012.4 |
| 20260510114010 | 52 | 205 | 0.9 | 2.6 | 0.00 | 0.39 | 0.00 | 94 | 1012.4 |
| 20260510113507 | 53 | 196 | 0.9 | 2.6 | 0.00 | 0.39 | 0.00 | 95 | 1012.2 |
| 20260510113030 | 53 | 200 | 0.0 | 1.7 | 0.00 | 0.39 | 0.00 | 95 | 1012.2 |
| 20260510112512 | 53 | 206 | 0.0 | 2.6 | 0.00 | 0.39 | 0.00 | 95 | 1011.9 |
| 20260510112011 | 53 | 206 | 0.0 | 2.6 | 0.00 | 0.39 | 0.00 | 95 | 1011.9 |
| 20260510111512 | 53 | 199 | 0.0 | 3.5 | 0.00 | 0.39 | 0.00 | 95 | 1011.7 |
| 20260510111005 | 52 | 200 | 0.0 | 3.5 | 0.00 | 0.39 | 0.00 | 95 | 1011.7 |
| 20260510110512 | 52 | 205 | 0.9 | 2.6 | 0.00 | 0.39 | 0.00 | 95 | 1011.6 |
| 20260510110017 | 52 | 159 | 0.0 | 2.6 | 0.00 | 0.39 | 0.00 | 95 | 1011.6 |
| 20260510105507 | 52 | 211 | 0.9 | 2.6 | 0.00 | 0.39 | 0.00 | 95 | 1011.6 |
| 20260510105012 | 52 | 150 | 0.0 | 1.7 | 0.00 | 0.39 | 0.00 | 95 | 1011.6 |
| 20260510104524 | 52 | 174 | 0.0 | 3.5 | 0.00 | 0.39 | 0.00 | 95 | 1011.6 |
| 20260510104007 | 52 | 209 | 0.9 | 3.5 | 0.00 | 0.39 | 0.00 | 95 | 1011.5 |
| 20260510103508 | 52 | 197 | 0.9 | 2.6 | 0.00 | 0.39 | 0.00 | 95 | 1011.6 |
| 20260510103033 | 52 | 194 | 0.0 | 2.6 | 0.00 | 0.39 | 0.00 | 95 | 1011.6 |
| 20260510102508 | 52 | 204 | 0.0 | 3.5 | 0.00 | 0.39 | 0.00 | 95 | 1011.6 |
| 20260510102010 | 52 | 196 | 0.9 | 4.3 | 0.00 | 0.39 | 0.00 | 95 | 1011.6 |
| 20260510101527 | 52 | 181 | 0.9 | 4.3 | 0.00 | 0.39 | 0.00 | 95 | 1011.7 |
| 20260510101013 | 52 | 218 | 0.9 | 4.3 | 0.00 | 0.39 | 0.00 | 95 | 1011.6 |
| 20260510100516 | 52 | 213 | 0.9 | 2.6 | 0.00 | 0.39 | 0.00 | 95 | 1011.6 |
| 20260510100015 | 52 | 212 | 0.0 | 1.7 | 0.00 | 0.39 | 0.00 | 95 | 1011.6 |
| 20260510095508 | 52 | 213 | 0.0 | 1.7 | 0.00 | 0.39 | 0.00 | 95 | 1011.5 |
| 20260510095006 | 52 | 168 | 0.0 | 2.6 | 0.00 | 0.39 | 0.00 | 95 | 1011.6 |
| 20260510094518 | 52 | 196 | 0.9 | 3.5 | 0.00 | 0.39 | 0.00 | 95 | 1011.6 |
| 20260510094008 | 52 | 229 | 0.9 | 3.5 | 0.00 | 0.39 | 0.00 | 95 | 1011.5 |
| 20260510093510 | 53 | 205 | 0.9 | 2.6 | 0.00 | 0.39 | 0.00 | 95 | 1011.7 |
| 20260510093023 | 53 | 184 | 0.9 | 2.6 | 0.00 | 0.39 | 0.00 | 95 | 1011.8 |
| 20260510092512 | 53 | 198 | 0.0 | 1.7 | 0.00 | 0.39 | 0.00 | 95 | 1011.8 |
| 20260510092016 | 53 | 182 | 0.0 | 1.7 | 0.00 | 0.39 | 0.00 | 95 | 1011.8 |
| 20260510091546 | 53 | 198 | 0.0 | 1.7 | 0.00 | 0.39 | 0.00 | 95 | 1011.8 |
| 20260510091009 | 53 | 210 | 0.0 | 1.7 | 0.00 | 0.39 | 0.00 | 95 | 1011.8 |
| 20260510090509 | 53 | 313 | 0.0 | 0.0 | 0.00 | 0.39 | 0.00 | 95 | 1011.9 |
| 20260510090026 | 53 | 313 | 0.0 | 1.7 | 0.00 | 0.39 | 0.00 | 95 | 1012.0 |
| 20260510085512 | 53 | 313 | 0.0 | 1.7 | 0.00 | 0.39 | 0.00 | 95 | 1012.0 |
| 20260510085005 | 53 | 313 | 0.0 | 1.7 | 0.00 | 0.39 | 0.00 | 95 | 1012.0 |
| 20260510084516 | 52 | 313 | 0.0 | 1.7 | 0.00 | 0.39 | 0.00 | 95 | 1011.9 |
| 20260510084009 | 52 | 313 | 0.0 | 1.7 | 0.00 | 0.39 | 0.00 | 95 | 1012.0 |
| 20260510083514 | 52 | 313 | 0.0 | 0.9 | 0.00 | 0.39 | 0.00 | 95 | 1012.0 |
| 20260510083021 | 52 | 335 | 0.0 | 0.0 | 0.00 | 0.39 | 0.00 | 95 | 1012.1 |
| 20260510082508 | 52 | 335 | 0.0 | 0.0 | 0.00 | 0.39 | 0.00 | 95 | 1011.9 |
| 20260510082008 | 52 | 335 | 0.0 | 0.0 | 0.00 | 0.39 | 0.00 | 95 | 1012.0 |
| 20260510081535 | 52 | 335 | 0.0 | 1.7 | 0.00 | 0.39 | 0.00 | 95 | 1012.0 |
| 20260510081009 | 52 | 335 | 0.0 | 1.7 | 0.00 | 0.39 | 0.00 | 95 | 1012.0 |
| 20260510080510 | 52 | 335 | 0.0 | 1.7 | 0.00 | 0.39 | 0.00 | 95 | 1011.6 |
| 20260510080025 | 52 | 327 | 0.9 | 4.3 | 0.00 | 0.39 | 0.00 | 95 | 1012.0 |
| 20260510075514 | 52 | 13 | 0.9 | 4.3 | 0.00 | 0.39 | 0.00 | 95 | 1011.8 |
| 20260510075012 | 52 | 313 | 1.7 | 2.6 | 0.00 | 0.39 | 0.00 | 95 | 1011.6 |
| 20260510074530 | 52 | 62 | 0.0 | 1.7 | 0.00 | 0.39 | 0.00 | 95 | 1011.0 |
| 20260510074019 | 52 | 144 | 0.0 | 1.7 | 0.00 | 0.39 | 0.00 | 95 | 1010.8 |
| 20260510073513 | 52 | 144 | 0.0 | 1.7 | 0.00 | 0.39 | 0.00 | 95 | 1011.0 |
| 20260510073027 | 52 | 144 | 0.0 | 0.9 | 0.00 | 0.39 | 0.00 | 95 | 1011.0 |
| 20260510072507 | 52 | 144 | 0.0 | 1.7 | 0.00 | 0.39 | 0.00 | 95 | 1011.0 |
| 20260510072009 | 52 | 144 | 0.0 | 0.9 | 0.00 | 0.39 | 0.00 | 95 | 1011.0 |
| 20260510071536 | 52 | 144 | 0.0 | 1.7 | 0.00 | 0.39 | 0.00 | 95 | 1011.2 |
| 20260510071009 | 52 | 144 | 0.0 | 1.7 | 0.00 | 0.39 | 0.00 | 94 | 1011.1 |
| 20260510070510 | 52 | 144 | 0.0 | 1.7 | 0.00 | 0.39 | 0.00 | 95 | 1011.2 |
| 20260510070027 | 52 | 192 | 0.0 | 1.7 | 0.00 | 0.39 | 0.00 | 95 | 1011.3 |
| 20260510065510 | 52 | 192 | 0.0 | 1.7 | 0.00 | 0.39 | 0.00 | 95 | 1011.2 |
| 20260510065011 | 52 | 192 | 0.0 | 0.9 | 0.00 | 0.39 | 0.00 | 95 | 1011.2 |
| 20260510064549 | 53 | 192 | 0.0 | 1.7 | 0.00 | 0.39 | 0.00 | 95 | 1011.2 |
| 20260510064009 | 53 | 192 | 0.0 | 1.7 | 0.00 | 0.39 | 0.00 | 94 | 1011.3 |
| 20260510063510 | 53 | 192 | 0.0 | 1.7 | 0.00 | 0.39 | 0.00 | 94 | 1011.4 |
| 20260510063038 | 53 | 192 | 0.0 | 0.9 | 0.00 | 0.39 | 0.00 | 94 | 1011.4 |
| 20260510062508 | 53 | 192 | 0.0 | 0.9 | 0.00 | 0.39 | 0.00 | 94 | 1011.3 |
| 20260510062007 | 53 | 192 | 0.0 | 0.9 | 0.00 | 0.39 | 0.00 | 94 | 1011.3 |
| 20260510061533 | 53 | 192 | 0.0 | 0.9 | 0.00 | 0.39 | 0.00 | 94 | 1011.3 |
| 20260510061010 | 53 | 192 | 0.0 | 0.9 | 0.00 | 0.39 | 0.00 | 94 | 1011.3 |
| 20260510060509 | 53 | 192 | 0.0 | 1.7 | 0.00 | 0.39 | 0.00 | 94 | 1011.0 |
| 20260510060032 | 53 | 192 | 0.0 | 1.7 | 0.00 | 0.39 | 0.00 | 94 | 1011.0 |
| 20260510055510 | 53 | 212 | 0.0 | 1.7 | 0.00 | 0.39 | 0.00 | 94 | 1010.9 |
| 20260510055009 | 53 | 214 | 0.0 | 1.7 | 0.00 | 0.39 | 0.00 | 94 | 1010.9 |
| 20260510054528 | 53 | 224 | 0.9 | 1.7 | 0.00 | 0.39 | 0.00 | 94 | 1010.9 |
| 20260510054010 | 53 | 225 | 0.0 | 1.7 | 0.00 | 0.40 | 0.00 | 94 | 1010.9 |
| 20260510053513 | 53 | 5 | 0.0 | 1.7 | 0.00 | 0.40 | 0.00 | 95 | 1010.9 |
| 20260510053025 | 53 | 5 | 0.0 | 1.7 | 0.00 | 0.40 | 0.00 | 95 | 1010.9 |
| 20260510052515 | 53 | 5 | 0.0 | 1.7 | 0.00 | 0.40 | 0.00 | 94 | 1011.0 |
| 20260510052012 | 53 | 5 | 0.0 | 1.7 | 0.00 | 0.40 | 0.00 | 94 | 1011.0 |
| 20260510051526 | 53 | 5 | 0.0 | 1.7 | 0.00 | 0.40 | 0.00 | 94 | 1011.0 |
| 20260510051009 | 53 | 5 | 0.0 | 1.7 | 0.00 | 0.40 | 0.00 | 94 | 1011.0 |
| 20260510050509 | 53 | 5 | 0.0 | 1.7 | 0.00 | 0.40 | 0.00 | 94 | 1011.0 |
| 20260510050026 | 53 | 5 | 0.0 | 0.0 | 0.00 | 0.40 | 0.00 | 94 | 1011.1 |
| 20260510045510 | 53 | 5 | 0.0 | 1.7 | 0.00 | 0.40 | 0.00 | 94 | 1011.1 |
| 20260510045017 | 53 | 5 | 0.0 | 1.7 | 0.00 | 0.40 | 0.00 | 94 | 1011.3 |
| 20260510044530 | 53 | 5 | 0.0 | 1.7 | 0.00 | 0.40 | 0.00 | 94 | 1011.2 |
| 20260510044012 | 53 | 5 | 0.0 | 1.7 | 0.00 | 0.40 | 0.00 | 94 | 1011.2 |
| 20260510043511 | 53 | 5 | 0.0 | 1.7 | 0.00 | 0.40 | 0.00 | 94 | 1011.2 |
| 20260510043026 | 53 | 5 | 0.0 | 1.7 | 0.00 | 0.40 | 0.00 | 94 | 1011.1 |
| 20260510042510 | 53 | 19 | 0.0 | 1.7 | 0.00 | 0.40 | 0.00 | 94 | 1011.1 |
| 20260510042010 | 53 | 43 | 0.0 | 1.7 | 0.00 | 0.40 | 0.00 | 94 | 1011.1 |
| 20260510041526 | 53 | 5 | 0.0 | 0.0 | 0.00 | 0.40 | 0.00 | 94 | 1011.1 |
| 20260510041011 | 53 | 15 | 0.0 | 0.0 | 0.00 | 0.40 | 0.00 | 94 | 1011.2 |
| 20260510040511 | 53 | 15 | 0.0 | 1.7 | 0.00 | 0.40 | 0.00 | 94 | 1011.2 |
| 20260510040022 | 53 | 15 | 0.0 | 1.7 | 0.00 | 0.40 | 0.00 | 94 | 1011.1 |
| 20260510035510 | 53 | 46 | 0.0 | 1.7 | 0.00 | 0.40 | 0.40 | 94 | 1011.0 |
| 20260510035010 | 53 | 69 | 0.0 | 1.7 | 0.00 | 0.40 | 0.40 | 94 | 1010.9 |
| 20260510034525 | 53 | 69 | 0.0 | 1.7 | 0.00 | 0.40 | 0.40 | 94 | 1010.9 |
| 20260510034014 | 53 | 69 | 0.0 | 1.7 | 0.00 | 0.40 | 0.40 | 94 | 1011.0 |
| 20260510033507 | 53 | 69 | 0.0 | 1.7 | 0.00 | 0.40 | 0.40 | 94 | 1010.8 |
| 20260510033028 | 53 | 69 | 0.0 | 1.7 | 0.00 | 0.40 | 0.40 | 94 | 1010.7 |
| 20260510032507 | 53 | 352 | 0.0 | 0.0 | 0.00 | 0.40 | 0.40 | 94 | 1010.6 |
| 20260510032011 | 53 | 352 | 0.0 | 1.7 | 0.00 | 0.40 | 0.40 | 94 | 1010.6 |
| 20260510031516 | 53 | 352 | 0.0 | 1.7 | 0.00 | 0.40 | 0.40 | 94 | 1010.7 |
| 20260510031008 | 53 | 352 | 0.9 | 1.7 | 0.00 | 0.40 | 0.40 | 94 | 1010.6 |
| 20260510030507 | 53 | 352 | 0.9 | 1.7 | 0.00 | 0.40 | 0.40 | 94 | 1010.7 |
| 20260510030019 | 53 | 211 | 0.0 | 1.7 | 0.00 | 0.40 | 0.40 | 94 | 1010.7 |
| 20260510025508 | 53 | 211 | 0.0 | 1.7 | 0.00 | 0.40 | 0.40 | 94 | 1010.8 |
| 20260510025011 | 53 | 211 | 0.0 | 0.9 | 0.00 | 0.40 | 0.40 | 94 | 1010.9 |
| 20260510024523 | 53 | 211 | 0.0 | 0.9 | 0.00 | 0.40 | 0.40 | 94 | 1011.0 |
| 20260510024010 | 53 | 211 | 0.0 | 1.7 | 0.00 | 0.40 | 0.40 | 94 | 1011.0 |
| 20260510023510 | 53 | 211 | 0.0 | 1.7 | 0.00 | 0.40 | 0.40 | 94 | 1011.0 |
| 20260510023026 | 53 | 225 | 0.0 | 1.7 | 0.00 | 0.40 | 0.40 | 94 | 1010.9 |
| 20260510022508 | 53 | 225 | 0.0 | 1.7 | 0.00 | 0.40 | 0.40 | 94 | 1010.9 |
| 20260510022011 | 53 | 225 | 0.0 | 0.0 | 0.00 | 0.40 | 0.40 | 94 | 1010.8 |
| 20260510021528 | 53 | 225 | 0.0 | 0.0 | 0.00 | 0.40 | 0.40 | 94 | 1010.8 |
| 20260510021008 | 53 | 225 | 0.0 | 0.0 | 0.00 | 0.40 | 0.40 | 94 | 1010.8 |
| 20260510020506 | 53 | 225 | 0.0 | 0.0 | 0.00 | 0.40 | 0.40 | 94 | 1010.9 |
| 20260510020016 | 53 | 225 | 0.0 | 0.0 | 0.00 | 0.40 | 0.40 | 94 | 1011.0 |
| 20260510015509 | 53 | 225 | 0.0 | 1.7 | 0.00 | 0.40 | 0.40 | 94 | 1010.9 |
| 20260510015007 | 53 | 225 | 0.0 | 1.7 | 0.00 | 0.40 | 0.40 | 94 | 1010.8 |
| 20260510014527 | 53 | 225 | 0.0 | 1.7 | 0.00 | 0.40 | 0.40 | 93 | 1010.9 |
| 20260510014006 | 54 | 225 | 0.0 | 1.7 | 0.00 | 0.40 | 0.40 | 93 | 1010.8 |
| 20260510013511 | 54 | 230 | 0.0 | 1.7 | 0.00 | 0.40 | 0.40 | 93 | 1010.7 |
| 20260510013024 | 54 | 230 | 0.0 | 0.9 | 0.00 | 0.40 | 0.40 | 94 | 1010.7 |
| 20260510012511 | 54 | 230 | 0.0 | 1.7 | 0.00 | 0.40 | 0.40 | 94 | 1010.7 |
| 20260510012009 | 54 | 230 | 0.0 | 1.7 | 0.00 | 0.40 | 0.40 | 94 | 1010.6 |
| 20260510011527 | 54 | 230 | 0.0 | 1.7 | 0.00 | 0.40 | 0.40 | 94 | 1010.3 |
| 20260510011008 | 54 | 230 | 0.0 | 1.7 | 0.00 | 0.40 | 0.40 | 94 | 1010.4 |
| 20260510010510 | 54 | 230 | 0.0 | 1.7 | 0.00 | 0.40 | 0.40 | 94 | 1010.4 |
| 20260510010027 | 54 | 170 | 0.0 | 1.7 | 0.00 | 0.40 | 0.40 | 94 | 1010.2 |
| 20260510005507 | 54 | 200 | 0.0 | 1.7 | 0.00 | 0.40 | 0.40 | 94 | 1010.1 |
| 20260510005008 | 54 | 220 | 0.0 | 1.7 | 0.00 | 0.40 | 0.40 | 94 | 1010.2 |
| 20260510004520 | 53 | 220 | 0.0 | 1.7 | 0.00 | 0.40 | 0.40 | 94 | 1010.2 |
| 20260510004013 | 53 | 257 | 0.0 | 0.0 | 0.00 | 0.40 | 0.40 | 93 | 1010.2 |
| 20260510003505 | 53 | 257 | 0.0 | 0.9 | 0.00 | 0.40 | 0.40 | 93 | 1010.2 |
| 20260510003006 | 53 | 257 | 0.0 | 1.7 | 0.00 | 0.40 | 0.40 | 93 | 1010.3 |
| 20260510002504 | 54 | 257 | 0.0 | 1.7 | 0.00 | 0.40 | 0.40 | 93 | 1010.3 |
| 20260510002003 | 54 | 257 | 0.0 | 1.7 | 0.00 | 0.40 | 0.40 | 92 | 1010.2 |
| 20260510001507 | 54 | 257 | 0.0 | 1.7 | 0.00 | 0.40 | 0.40 | 93 | 1010.2 |
| 20260510001004 | 54 | 257 | 0.0 | 1.7 | 0.00 | 0.40 | 0.40 | 92 | 1010.2 |
| 20260510000502 | 54 | 257 | 0.0 | 1.7 | 0.00 | 0.40 | 0.40 | 92 | 1010.1 |
| 20260510000007 | 54 | 257 | 0.0 | 0.9 | 0.00 | 0.40 | 0.40 | 92 | 1010.0 |
| 20260509235503 | 54 | 257 | 0.0 | 0.9 | 0.00 | 0.40 | 0.40 | 92 | 1010.0 |
| 20260509235004 | 54 | 257 | 0.0 | 0.9 | 0.00 | 0.40 | 0.40 | 92 | 1010.0 |
| 20260509234517 | 54 | 200 | 0.0 | 1.7 | 0.00 | 0.40 | 0.40 | 92 | 1009.9 |
| 20260509234004 | 54 | 200 | 0.0 | 1.7 | 0.00 | 0.40 | 0.40 | 91 | 1009.9 |
| 20260509233503 | 54 | 200 | 0.0 | 1.7 | 0.00 | 0.40 | 0.40 | 91 | 1009.9 |
| 20260509233016 | 55 | 200 | 0.0 | 1.7 | 0.00 | 0.40 | 0.40 | 91 | 1009.9 |
| 20260509232503 | 55 | 200 | 0.0 | 1.7 | 0.00 | 0.40 | 0.40 | 91 | 1009.9 |
| 20260509232004 | 55 | 248 | 0.0 | 1.7 | 0.00 | 0.40 | 0.40 | 91 | 1010.0 |
| 20260509231503 | 55 | 209 | 0.0 | 1.7 | 0.00 | 0.40 | 0.40 | 91 | 1010.0 |
| 20260509231004 | 55 | 210 | 0.9 | 1.7 | 0.00 | 0.40 | 0.40 | 91 | 1010.2 |
| 20260509230504 | 55 | 200 | 0.0 | 2.6 | 0.00 | 0.40 | 0.40 | 92 | 1010.3 |
| 20260509230006 | 55 | 200 | 0.0 | 2.6 | 0.01 | 0.40 | 0.40 | 92 | 1010.3 |
| 20260509225507 | 55 | 206 | 0.9 | 2.6 | 0.02 | 0.40 | 0.40 | 92 | 1010.3 |
| 20260509225004 | 55 | 182 | 0.9 | 1.7 | 0.02 | 0.40 | 0.40 | 92 | 1010.3 |
| 20260509224513 | 55 | 188 | 0.9 | 1.7 | 0.04 | 0.40 | 0.40 | 92 | 1010.2 |
| 20260509224006 | 55 | 209 | 0.0 | 1.7 | 0.06 | 0.40 | 0.40 | 92 | 1010.1 |
| 20260509223505 | 55 | 177 | 0.0 | 1.7 | 0.08 | 0.40 | 0.40 | 92 | 1010.1 |
| 20260509223007 | 55 | 177 | 0.0 | 1.7 | 0.09 | 0.40 | 0.40 | 92 | 1010.3 |
| 20260509222506 | 55 | 284 | 0.0 | 1.7 | 0.09 | 0.40 | 0.40 | 92 | 1010.3 |
| 20260509222003 | 55 | 284 | 0.0 | 1.7 | 0.11 | 0.40 | 0.40 | 92 | 1010.3 |
| 20260509221508 | 55 | 284 | 0.0 | 1.7 | 0.16 | 0.40 | 0.40 | 92 | 1010.5 |
| 20260509221004 | 55 | 284 | 0.0 | 1.7 | 0.16 | 0.40 | 0.40 | 92 | 1010.6 |
| 20260509220504 | 55 | 284 | 0.0 | 1.7 | 0.16 | 0.40 | 0.40 | 92 | 1010.7 |
| 20260509220007 | 55 | 284 | 0.0 | 0.9 | 0.16 | 0.39 | 0.39 | 91 | 1010.3 |
| 20260509215506 | 55 | 290 | 0.0 | 1.7 | 0.16 | 0.38 | 0.38 | 92 | 1010.6 |
| 20260509215012 | 55 | 290 | 0.0 | 1.7 | 0.17 | 0.38 | 0.38 | 91 | 1010.7 |
| 20260509214510 | 55 | 290 | 0.0 | 1.7 | 0.16 | 0.36 | 0.36 | 92 | 1010.8 |
| 20260509214006 | 55 | 290 | 0.0 | 1.7 | 0.15 | 0.34 | 0.34 | 91 | 1010.9 |
| 20260509213508 | 55 | 290 | 0.0 | 1.7 | 0.14 | 0.32 | 0.32 | 91 | 1010.7 |
| 20260509213008 | 55 | 290 | 0.0 | 1.7 | 0.14 | 0.31 | 0.31 | 91 | 1010.7 |
| 20260509212504 | 55 | 258 | 0.9 | 1.7 | 0.14 | 0.31 | 0.31 | 90 | 1010.7 |
| 20260509212005 | 55 | 215 | 0.9 | 1.7 | 0.13 | 0.29 | 0.29 | 91 | 1010.5 |
| 20260509211508 | 55 | 132 | 0.0 | 1.7 | 0.08 | 0.24 | 0.24 | 90 | 1010.9 |
| 20260509211004 | 55 | 84 | 0.0 | 1.7 | 0.09 | 0.24 | 0.24 | 90 | 1010.6 |
| 20260509210506 | 56 | 84 | 0.0 | 1.7 | 0.09 | 0.24 | 0.24 | 90 | 1010.6 |
| 20260509210005 | 56 | 84 | 0.0 | 1.7 | 0.08 | 0.23 | 0.23 | 89 | 1010.7 |
| 20260509205504 | 56 | 203 | 0.0 | 1.7 | 0.07 | 0.22 | 0.22 | 89 | 1011.0 |
| 20260509205005 | 56 | 161 | 0.0 | 1.7 | 0.06 | 0.21 | 0.21 | 89 | 1010.9 |